Terug naar catalogus

NINGXIA-1 9

ActiefWetenschapLEO
NORAD 49021·PAYLOAD·🇨🇳 China

Gelanceerd Jul 9, 2021 vanaf Taiyuan Satellite Launch Center

Loading…

Volgende Passages (komende 24 uur)

TLE

VersSource: Space-Track

Epoch: Sep 14, 2026, 14:23 UTC

1 49021U 21064D   26257.59989023 -.00000273  00000-0 -81334-4 0  9993
2 49021  45.0018 183.0453 0009571 318.6517  41.3595 14.08519911266834

Volg NINGXIA-1 9 in realtime met AllMySat

Download on the App Store